| time (UTC) | temp C | wind direction | speed KPH | gust KPH | rain 1hr cm | rain 24hr cm | rain mn cm | humidity % | barometer mb |
| 20260507094426 | 8 | 45 | 0.0 | 0.0 | 0.00 | 0.00 | 0.00 | 75 | 1024.2 |
| 20260507093426 | 8 | 45 | 0.0 | 0.0 | 0.00 | 0.00 | 0.00 | 74 | 1024.2 |
| 20260507092427 | 8 | 45 | 0.0 | 0.0 | 0.00 | 0.00 | 0.00 | 77 | 1024.3 |
| 20260507091427 | 8 | 45 | 0.0 | 0.0 | 0.00 | 0.00 | 0.00 | 85 | 1024.4 |
| 20260507085428 | 8 | 45 | 0.0 | 0.0 | 0.00 | 0.00 | 0.00 | 92 | 1024.4 |
| 20260507084526 | 8 | 45 | 0.0 | 0.0 | 0.00 | 0.00 | 0.00 | 94 | 1024.5 |
| 20260507083626 | 8 | 45 | 0.0 | 0.0 | 0.00 | 0.00 | 0.00 | 94 | 1024.6 |
| 20260507081626 | 8 | 45 | 0.0 | 0.0 | 0.00 | 0.00 | 0.00 | 94 | 1024.7 |
| 20260507075726 | 9 | 45 | 0.0 | 0.0 | 0.00 | 0.00 | 0.00 | 94 | 1024.8 |
| 20260507074726 | 9 | 45 | 0.0 | 0.0 | 0.00 | 0.00 | 0.00 | 94 | 1024.7 |
| 20260507072728 | 9 | 45 | 0.0 | 0.0 | 0.00 | 0.00 | 0.00 | 94 | 1024.8 |
| 20260507071826 | 9 | 45 | 0.0 | 0.0 | 0.00 | 0.00 | 0.00 | 94 | 1024.8 |
| 20260507070828 | 9 | 45 | 0.0 | 0.0 | 0.00 | 0.00 | 0.00 | 94 | 1025.0 |
| 20260507065912 | 9 | 45 | 0.0 | 0.0 | 0.00 | 0.00 | 0.00 | 93 | 1025.0 |
| 20260507065011 | 9 | 45 | 0.0 | 0.0 | 0.00 | 0.00 | 0.00 | 93 | 1025.1 |
| 20260507064011 | 9 | 45 | 0.0 | 0.0 | 0.00 | 0.00 | 0.00 | 93 | 1025.1 |
| 20260507063012 | 10 | 45 | 0.0 | 0.0 | 0.00 | 0.00 | 0.00 | 93 | 1024.9 |
| 20260507062013 | 10 | 45 | 0.0 | 0.0 | 0.00 | 0.00 | 0.00 | 93 | 1024.9 |
| 20260507061111 | 10 | 45 | 0.0 | 0.0 | 0.00 | 0.00 | 0.00 | 93 | 1024.9 |
| 20260507060112 | 10 | 45 | 0.0 | 0.0 | 0.00 | 0.00 | 0.00 | 93 | 1024.7 |
| 20260507055210 | 10 | 45 | 0.0 | 0.0 | 0.00 | 0.00 | 0.00 | 93 | 1024.6 |
| 20260507054310 | 10 | 45 | 0.0 | 0.0 | 0.00 | 0.00 | 0.00 | 93 | 1024.6 |
| 20260507053312 | 10 | 45 | 0.0 | 0.0 | 0.00 | 0.00 | 0.00 | 93 | 1024.7 |
| 20260507052411 | 10 | 45 | 0.0 | 0.0 | 0.00 | 0.00 | 0.00 | 93 | 1024.6 |
| 20260507051411 | 11 | 45 | 0.0 | 0.0 | 0.00 | 0.00 | 0.00 | 93 | 1024.6 |
| 20260507050411 | 11 | 45 | 0.0 | 0.0 | 0.00 | 0.00 | 0.00 | 93 | 1024.7 |
| 20260507045412 | 11 | 45 | 0.0 | 0.0 | 0.00 | 0.00 | 0.00 | 92 | 1024.8 |
| 20260507044511 | 11 | 45 | 0.0 | 0.0 | 0.00 | 0.00 | 0.00 | 92 | 1024.7 |
| 20260507043511 | 11 | 45 | 0.0 | 0.0 | 0.00 | 0.00 | 0.00 | 92 | 1024.7 |
| 20260507042511 | 11 | 45 | 0.0 | 0.0 | 0.00 | 0.00 | 0.00 | 91 | 1024.6 |
| 20260507041511 | 11 | 45 | 0.0 | 0.0 | 0.00 | 0.00 | 0.00 | 91 | 1024.7 |
| 20260507040510 | 11 | 45 | 0.0 | 0.0 | 0.00 | 0.00 | 0.00 | 91 | 1024.6 |
| 20260507035513 | 11 | 45 | 0.0 | 0.0 | 0.00 | 0.00 | 0.00 | 90 | 1024.5 |
| 20260507032611 | 12 | 45 | 0.0 | 0.0 | 0.00 | 0.00 | 0.00 | 89 | 1024.2 |
| 20260507031610 | 12 | 45 | 0.0 | 0.0 | 0.00 | 0.00 | 0.00 | 88 | 1024.3 |
| 20260507025711 | 12 | 45 | 0.0 | 0.0 | 0.00 | 0.00 | 0.00 | 86 | 1024.2 |
| 20260507024810 | 13 | 45 | 0.0 | 0.0 | 0.00 | 0.00 | 0.00 | 86 | 1024.1 |
| 20260507021910 | 13 | 45 | 0.0 | 0.0 | 0.00 | 0.00 | 0.00 | 82 | 1023.9 |
| 20260507020912 | 14 | 45 | 0.0 | 0.0 | 0.00 | 0.00 | 0.00 | 82 | 1023.8 |
| 20260507015911 | 14 | 45 | 0.0 | 0.0 | 0.00 | 0.00 | 0.00 | 81 | 1023.8 |
| 20260507014910 | 15 | 45 | 0.0 | 0.0 | 0.00 | 0.00 | 0.00 | 80 | 1023.8 |
| 20260507013911 | 15 | 113 | 0.0 | 0.0 | 0.00 | 0.00 | 0.00 | 78 | 1023.8 |
| 20260507012910 | 15 | 135 | 0.0 | 0.0 | 0.00 | 0.00 | 0.00 | 77 | 1023.8 |
| 20260507011911 | 15 | 135 | 0.0 | 0.0 | 0.00 | 0.00 | 0.00 | 76 | 1023.7 |
| 20260507010912 | 15 | 135 | 0.0 | 0.0 | 0.00 | 0.00 | 0.00 | 75 | 1023.7 |
| 20260507010011 | 16 | 157 | 0.0 | 0.0 | 0.00 | 0.00 | 0.00 | 75 | 1023.7 |
| 20260507005013 | 16 | 157 | 0.0 | 0.0 | 0.00 | 0.00 | 0.00 | 73 | 1023.6 |
| 20260507003012 | 16 | 45 | 0.0 | 0.0 | 0.00 | 0.00 | 0.00 | 73 | 1023.6 |
| 20260507002912 | 16 | 46 | 0.0 | 4.8 | 0.00 | 0.00 | 0.00 | 73 | 1023.6 |
| 20260507001912 | 16 | 45 | 0.0 | 0.0 | 0.00 | 0.00 | 0.00 | 72 | 1023.7 |
| 20260507000913 | 16 | 66 | 0.0 | 4.8 | 0.00 | 0.00 | 0.00 | 72 | 1023.6 |
| 20260506235912 | 16 | 360 | 0.0 | 0.0 | 0.00 | 0.00 | 0.00 | 71 | 1023.6 |
| 20260506235010 | 16 | 180 | 0.0 | 0.0 | 0.00 | 0.00 | 0.00 | 71 | 1023.6 |
| 20260506234014 | 16 | 358 | 0.0 | 1.6 | 0.00 | 0.00 | 0.00 | 70 | 1023.6 |
| 20260506233011 | 17 | 176 | 1.6 | 3.2 | 0.00 | 0.00 | 0.00 | 69 | 1023.7 |
| 20260506232011 | 17 | 219 | 0.0 | 3.2 | 0.00 | 0.00 | 0.00 | 68 | 1023.7 |
| 20260506231011 | 17 | 208 | 0.0 | 3.2 | 0.00 | 0.00 | 0.00 | 68 | 1023.8 |
| 20260506230010 | 17 | 224 | 0.0 | 1.6 | 0.00 | 0.00 | 0.00 | 66 | 1023.6 |
| 20260506225010 | 18 | 232 | 0.0 | 0.0 | 0.00 | 0.00 | 0.00 | 65 | 1023.7 |
| 20260506224012 | 17 | 82 | 0.0 | 0.0 | 0.00 | 0.00 | 0.00 | 66 | 1023.8 |
| 20260506223012 | 17 | 135 | 0.0 | 1.6 | 0.00 | 0.00 | 0.00 | 65 | 1023.9 |
| 20260506221111 | 17 | 346 | 0.0 | 3.2 | 0.00 | 0.00 | 0.00 | 64 | 1023.8 |
| 20260506220210 | 17 | 142 | 0.0 | 3.2 | 0.00 | 0.00 | 0.00 | 65 | 1024.0 |
| 20260506215213 | 17 | 48 | 0.0 | 1.6 | 0.00 | 0.00 | 0.00 | 65 | 1024.1 |
| 20260506214212 | 17 | 132 | 0.0 | 1.6 | 0.00 | 0.00 | 0.00 | 63 | 1024.2 |
| 20260506213211 | 17 | 359 | 0.0 | 0.0 | 0.00 | 0.00 | 0.00 | 63 | 1024.3 |
| 20260506212211 | 17 | 337 | 0.0 | 0.0 | 0.00 | 0.00 | 0.00 | 64 | 1024.2 |
| 20260506211211 | 17 | 49 | 0.0 | 0.0 | 0.00 | 0.00 | 0.00 | 64 | 1024.2 |
| 20260506210212 | 18 | 189 | 0.0 | 0.0 | 0.00 | 0.00 | 0.00 | 62 | 1024.2 |
| 20260506205311 | 18 | 11 | 0.0 | 1.6 | 0.00 | 0.00 | 0.00 | 64 | 1024.2 |
| 20260506204410 | 18 | 112 | 0.0 | 0.0 | 0.00 | 0.00 | 0.00 | 63 | 1024.2 |
| 20260506202412 | 18 | 337 | 1.6 | 4.8 | 0.00 | 0.00 | 0.00 | 62 | 1024.1 |
| 20260506201411 | 18 | 268 | 0.0 | 0.0 | 0.00 | 0.00 | 0.00 | 63 | 1024.3 |
| 20260506200509 | 18 | 245 | 0.0 | 1.6 | 0.00 | 0.00 | 0.00 | 61 | 1024.2 |
| 20260506195512 | 18 | 180 | 0.0 | 1.6 | 0.00 | 0.00 | 0.00 | 64 | 1024.2 |
| 20260506194511 | 18 | 159 | 3.2 | 4.8 | 0.00 | 0.00 | 0.00 | 63 | 1024.1 |
| 20260506193511 | 18 | 292 | 0.0 | 1.6 | 0.00 | 0.00 | 0.00 | 62 | 1024.3 |
| 20260506192511 | 18 | 5 | 1.6 | 6.4 | 0.00 | 0.00 | 0.00 | 63 | 1024.2 |
| 20260506191510 | 18 | 175 | 0.0 | 1.6 | 0.00 | 0.00 | 0.00 | 63 | 1024.2 |
| 20260506190511 | 18 | 202 | 0.0 | 1.6 | 0.00 | 0.00 | 0.00 | 64 | 1024.3 |
| 20260506185511 | 18 | 293 | 0.0 | 1.6 | 0.00 | 0.00 | 0.00 | 66 | 1024.2 |
| 20260506184527 | 18 | 292 | 0.0 | 1.6 | 0.00 | 0.00 | 0.00 | 63 | 1024.2 |
| 20260506183611 | 18 | 176 | 1.6 | 4.8 | 0.00 | 0.00 | 0.00 | 63 | 1024.0 |
| 20260506182612 | 19 | 118 | 0.0 | 4.8 | 0.00 | 0.00 | 0.00 | 62 | 1023.9 |
| 20260506181612 | 19 | 157 | 0.0 | 1.6 | 0.00 | 0.00 | 0.00 | 59 | 1023.8 |
| 20260506180611 | 20 | 164 | 1.6 | 4.8 | 0.00 | 0.00 | 0.00 | 61 | 1023.8 |
| 20260506175611 | 19 | 130 | 1.6 | 3.2 | 0.00 | 0.00 | 0.00 | 62 | 1023.6 |
| 20260506172810 | 17 | 157 | 0.0 | 0.0 | 0.00 | 0.00 | 0.00 | 68 | 1023.6 |
| 20260506171811 | 17 | 157 | 1.6 | 3.2 | 0.00 | 0.00 | 0.00 | 70 | 1023.8 |
| 20260506170812 | 16 | 157 | 0.0 | 1.6 | 0.00 | 0.00 | 0.00 | 72 | 1023.8 |
| 20260506165811 | 15 | 157 | 0.0 | 1.6 | 0.00 | 0.00 | 0.00 | 74 | 1023.6 |
| 20260506164810 | 14 | 180 | 0.0 | 1.6 | 0.00 | 0.00 | 0.00 | 77 | 1023.6 |
| 20260506163827 | 13 | 180 | 0.0 | 1.6 | 0.00 | 0.00 | 0.00 | 79 | 1023.6 |
| 20260506162811 | 12 | 180 | 1.6 | 1.6 | 0.00 | 0.00 | 0.00 | 83 | 1023.4 |
| 20260506161811 | 11 | 180 | 1.6 | 1.6 | 0.00 | 0.00 | 0.00 | 88 | 1023.4 |
| 20260506160911 | 10 | 180 | 0.0 | 1.6 | 0.00 | 0.00 | 0.00 | 93 | 1023.4 |
| 20260506155912 | 8 | 180 | 0.0 | 1.6 | 0.00 | 0.00 | 0.00 | 95 | 1023.3 |
| 20260506154911 | 7 | 180 | 1.6 | 1.6 | 0.00 | 0.00 | 0.00 | 95 | 1023.3 |
| 20260506153911 | 6 | 180 | 0.0 | 1.6 | 0.00 | 0.00 | 0.00 | 95 | 1023.2 |
| 20260506152913 | 6 | 180 | 0.0 | 1.6 | 0.00 | 0.00 | 0.00 | 95 | 1023.0 |
| 20260506151910 | 5 | 180 | 0.0 | 1.6 | 0.00 | 0.00 | 0.00 | 95 | 1023.0 |
| 20260506150911 | 5 | 180 | 0.0 | 0.0 | 0.00 | 0.03 | 0.00 | 95 | 1023.0 |
| 20260506145912 | 5 | 180 | 0.0 | 1.6 | 0.00 | 0.03 | 0.00 | 95 | 1022.8 |
| 20260506144011 | 3 | 180 | 0.0 | 0.0 | 0.00 | 0.08 | 0.00 | 95 | 1022.8 |
| 20260506143110 | 3 | 180 | 0.0 | 0.0 | 0.00 | 0.10 | 0.00 | 95 | 1022.8 |
| 20260506142109 | 3 | 180 | 0.0 | 0.0 | 0.00 | 0.13 | 0.00 | 95 | 1022.5 |
| 20260506141111 | 3 | 180 | 0.0 | 0.0 | 0.00 | 0.15 | 0.00 | 95 | 1022.4 |
| 20260506141011 | 3 | 180 | 0.0 | 0.0 | 0.00 | 0.15 | 0.00 | 95 | 1022.4 |
| 20260506135110 | 3 | 180 | 0.0 | 0.0 | 0.00 | 0.15 | 0.00 | 95 | 1022.2 |
| 20260506134126 | 3 | 180 | 0.0 | 0.0 | 0.00 | 0.15 | 0.00 | 95 | 1022.1 |
| 20260506133212 | 3 | 180 | 0.0 | 0.0 | 0.00 | 0.15 | 0.00 | 95 | 1022.1 |
| 20260506132211 | 3 | 180 | 0.0 | 0.0 | 0.00 | 0.18 | 0.00 | 95 | 1022.1 |
| 20260506125310 | 3 | 180 | 0.0 | 0.0 | 0.00 | 0.20 | 0.00 | 95 | 1021.8 |
| 20260506124311 | 3 | 180 | 0.0 | 0.0 | 0.00 | 0.23 | 0.00 | 95 | 1021.8 |
| 20260506123410 | 3 | 180 | 0.0 | 0.0 | 0.00 | 0.23 | 0.00 | 95 | 1021.8 |
| 20260506122412 | 3 | 180 | 0.0 | 0.0 | 0.00 | 0.23 | 0.00 | 95 | 1021.8 |
| 20260506121412 | 4 | 180 | 0.0 | 0.0 | 0.00 | 0.23 | 0.00 | 95 | 1021.8 |
| 20260506120411 | 4 | 180 | 0.0 | 0.0 | 0.00 | 0.23 | 0.00 | 95 | 1021.6 |
| 20260506115412 | 4 | 180 | 0.0 | 0.0 | 0.00 | 0.23 | 0.00 | 95 | 1021.6 |
| 20260506113511 | 4 | 180 | 0.0 | 0.0 | 0.00 | 0.23 | 0.00 | 95 | 1021.7 |
| 20260506112610 | 4 | 180 | 0.0 | 0.0 | 0.00 | 0.23 | 0.00 | 95 | 1021.5 |
| 20260506111613 | 4 | 180 | 0.0 | 0.0 | 0.00 | 0.23 | 0.00 | 95 | 1021.6 |
| 20260506110612 | 4 | 180 | 0.0 | 0.0 | 0.00 | 0.23 | 0.00 | 95 | 1021.5 |
| 20260506105710 | 4 | 180 | 0.0 | 0.0 | 0.00 | 0.23 | 0.00 | 95 | 1021.5 |
| 20260506104710 | 4 | 180 | 0.0 | 0.0 | 0.00 | 0.23 | 0.00 | 95 | 1021.4 |
| 20260506103712 | 4 | 180 | 0.0 | 0.0 | 0.00 | 0.23 | 0.00 | 95 | 1021.5 |
| 20260506102811 | 4 | 180 | 0.0 | 0.0 | 0.00 | 0.23 | 0.00 | 95 | 1021.2 |
| 20260506101812 | 4 | 180 | 0.0 | 0.0 | 0.00 | 0.23 | 0.00 | 95 | 1021.2 |
| 20260506100813 | 5 | 180 | 0.0 | 0.0 | 0.00 | 0.25 | 0.00 | 95 | 1020.9 |
| 20260506095813 | 5 | 180 | 0.0 | 0.0 | 0.00 | 0.25 | 0.00 | 95 | 1020.9 |